This demonstration page uses our WeatherBlox Daily Observations layout. Learn more.

Left ArrowRight Arrow

39.08367, -84.50855

Hourly Observations for January 2, 2021

Temp ( °F °C ) Dew Point ( °F °C ) Humidity (%) Winds ( mph kmh ) Pressure ( in mb ) Visibility ( mi km ) Precip ( " mm )
12:53 am 00:53 Cloudy 46 7.8 39 3.9 77 77 WSW 12 19 29.89 1012 10 16.0934 0 0
1:24 am 01:24 Cloudy 46 7.8 39 3.9 77 77 SW 13 20 29.91 1013 10 16.0934 0 0
1:53 am 01:53 Cloudy 46 7.8 39 3.9 77 77 SW 10 17 29.92 1013 10 16.0934 0 0
2:53 am 02:53 Cloudy 44 6.7 38 3.3 79 79 W 12 19 29.97 1015 10 16.0934 0.001 0.001
3:53 am 03:53 Cloudy 43 6.1 36 2.2 76 76 WSW 15 24 30 1016 10 16.0934 0 0
4:53 am 04:53 Cloudy 42 5.6 34 1.1 73 73 W 15 24 30.02 1017 10 16.0934 0 0
5:53 am 05:53 Cloudy 40 4.4 33 0.6 77 77 W 13 20 30.04 1017 10 16.0934 0 0
6:53 am 06:53 Cloudy 39 3.9 32 0 76 76 WSW 10 17 30.07 1018 10 16.0934 0 0
7:53 am 07:53 Cloudy 38 3.3 32 0 79 79 W 7 11 30.09 1019 10 16.0934 0 0
8:53 am 08:53 Cloudy 38 3.3 32 0 79 79 NW 3 6 30.11 1020 10 16.0934 0 0
9:53 am 09:53 Cloudy 39 3.9 32 0 76 76 WNW 3 6 30.11 1020 10 16.0934 0 0
10:53 am 10:53 Cloudy 39 3.9 32 0 76 76 Calm 30.09 1019 10 16.0934 0 0
11:53 am 11:53 Cloudy 39 3.9 32 0 76 76 SE 3 6 30.09 1019 10 16.0934 0 0
12:53 pm 12:53 Cloudy 40 4.4 33 0.6 77 77 S 5 7 30.08 1019 10 16.0934 0 0
1:53 pm 13:53 Cloudy 40 4.4 33 0.6 77 77 S 5 7 30.08 1019 10 16.0934 0 0
2:53 pm 14:53 Cloudy 41 5 32 0 70 70 Calm 30.07 1018 10 16.0934 0 0
3:53 pm 15:53 Cloudy 41 5 32 0 70 70 Calm 30.05 1018 10 16.0934 0 0
4:53 pm 16:53 Cloudy 41 5 33 0.6 73 73 NE 5 7 30.04 1017 10 16.0934 0 0
5:53 pm 17:53 Cloudy 41 5 33 0.6 73 73 Calm 30.04 1017 10 16.0934 0 0
6:53 pm 18:53 Cloudy 40 4.4 33 0.6 77 77 N 3 6 30.04 1017 10 16.0934 0 0
7:53 pm 19:53 Cloudy 40 4.4 33 0.6 77 77 NNE 6 9 30.02 1017 10 16.0934 0 0
8:53 pm 20:53 Cloudy 39 3.9 34 1.1 82 82 Calm 30.01 1016 10 16.0934 0 0
9:53 pm 21:53 Cloudy 40 4.4 34 1.1 79 79 N 3 6 30.01 1016 10 16.0934 0 0
10:53 pm 22:53 Cloudy with Light Rain 39 3.9 36 2.2 89 89 ENE 5 7 29.99 1016 10 16.0934 0.01 0.254
11:53 pm 23:53 Cloudy with Light Rain 39 3.9 36 2.2 89 89 N 5 7 29.96 1014 10 16.0934 0.001 0.001

Powered by AerisWeather